Weather Roundup
Issued by NWS

Home | Current Version | Previous Version | Graphics & Text | Print | Product List | Glossary Off
Versions: 1 2 3 4 5 6 7 8 9 10 11 12 13 14 15 16 17 18 19 20 21 22 23 24 25 26 27 28 29 30 31 32 33 34 35 36 37 38 39 40 41 42 43 44 45 46 47 48 49 50

000
NZUS93 KARX 250710
HRRWXR

CURRENT HOURLY OBSERVATIONS ACROSS
MUCH OF THE UPPER MISSISSIPPI VALLEY
NATIONAL WEATHER SERVICE LA CROSSE WI
200 AM CDT SAT APR 25 2015


...SOUTHEAST MINNESOTA...


CITY           SKY/WX    TMP DP  RH WIND       PRES   REMARKS
ROCHESTER      CLOUDY    41  37  86 E20G26    29.78F
ROCHESTER/MAYO CLOUDY    42  40  95 E9        29.79F
WINONA         NOT AVBL
AUSTIN         CLOUDY    43  37  81 E16       29.75S
ALBERT LEA     CLOUDY    43  39  87 E15       29.74F
DODGE CENTER   CLOUDY    43  39  87 E15       29.77S
PRESTON        CLOUDY    40  36  84 E12       29.79S WCI  33
OWATONNA       CLOUDY    43  37  81 E15       29.76F
FARIBAULT      CLOUDY    43  39  87 E7        29.78F
$$

...ELSEWHERE IN MINNESOTA...


CITY           SKY/WX    TMP DP  RH WIND       PRES   REMARKS
MINNEAPOLIS    CLOUDY    44  39  82 E12       29.81S
INTNL FALLS    CLOUDY    38  21  50 E7        29.92S WCI  33
DULUTH         CLOUDY    36  24  62 E12       29.90S WCI  28
RED WING       CLOUDY    43  37  81 E9        29.81F
REDWOOD FALLS  CLOUDY    45  40  82 E13       29.73S
MANKATO        CLOUDY    45  37  76 E14G22    29.75F
WORTHINGTON    CLOUDY    45  39  81 E9        29.69R
FAIRMONT       CLOUDY    45  19  36 E14       29.70S
$$

...SOUTHWEST WISCONSIN...


CITY           SKY/WX    TMP DP  RH WIND       PRES   REMARKS
LA CROSSE      CLOUDY    44  36  73 E9        29.84S
PRAIRIE DU CHI CLOUDY    42  34  72 E13G18    29.79F
BOSCOBEL       CLOUDY    42  35  76 NE8       29.83F
LONE ROCK      CLOUDY    41  35  79 E15       29.84F
PLATTEVILLE    CLOUDY    40  36  83 E17       29.79S WCI  32
FORT MC COY    CLOUDY    40  36  84 E14       29.87S WCI  32
CAMP DOUGLAS   CLOUDY    39  39 100 E13       29.86F WCI  31
VIROQUA        CLOUDY    38  36  91 E18       29.81S WCI  29
WIS DELLS      CLOUDY    37  34  87 E13       29.86F WCI  29
$$

...ELSEWHERE IN WISCONSIN...


CITY           SKY/WX    TMP DP  RH WIND       PRES   REMARKS
MILWAUKEE      CLOUDY    39  32  76 E7        29.93F WCI  34
MADISON        CLOUDY    40  33  76 E18G29    29.87F WCI  31
GREEN BAY      CLOUDY    41  24  51 E5        29.96F
EAU CLAIRE     CLOUDY    42  35  76 SE8G18    29.86F
BLACK RVR FLS  CLOUDY    40  38  94 E8        29.87F WCI  35
MEDFORD        CLOUDY    38  29  70 SE8       29.89F WCI  33
WAUSAU         CLOUDY    39  26  59 SE12G20   29.91F WCI  32
WIS RAPIDS     CLOUDY    37  33  85 E8        29.91F WCI  31
MARSHFIELD     CLOUDY    38  34  85 E13G20    29.90F WCI  30
RICE LAKE      CLOUDY    44  32  63 SE15      29.88S
$$

...NORTHEAST IOWA...


CITY           SKY/WX    TMP DP  RH WIND       PRES   REMARKS
DECORAH        CLOUDY    41  37  87 E15G22    29.76F
MASON CITY     CLOUDY    44  40  85 E13G22    29.72S
CHARLES CITY   CLOUDY    43  41  93 E17       29.72F
OELWEIN        CLOUDY    43  39  87 E18G29    29.73S
$$

...ELSEWHERE IN IOWA...


CITY           SKY/WX    TMP DP  RH WIND       PRES   REMARKS
DES MOINES     LGT RAIN  50  43  77 E13       29.60F
IOWA CITY      CLOUDY    45  41  86 E13G21    29.72F
FORT DODGE     CLOUDY    46  41  81 E15       29.65F
$$

...NORTHERN ILLINOIS...


CITY           SKY/WX    TMP DP  RH WIND       PRES   REMARKS
CHICAGO-OHARE  CLOUDY    42  38  85 NE13      29.86F
CHICAGO-MIDWAY CLOUDY    45  40  82 E15       29.87S
MOLINE         MOCLDY    45  39  79 E16       29.72F
ROCKFORD       CLOUDY    42  35  76 E16G28    29.83F
PEORIA         CLOUDY    55  39  54 SE6       29.73F
$$

NOTE: "FAIR" INDICATES FEW OR NO CLOUDS BELOW 12,000 FEET WITH NO
SIGNIFICANT WEATHER AND/OR OBSTRUCTIONS TO VISIBILITY. WIND
SPEEDS ARE IN MILES-PER-HOUR.



USA.gov is the U.S. government's official web portal to all federal, state and local government web resources and services.